Вернуться в каталог

STARLINK-30267

АктивенСвязьVLEO
NORAD 57663·PAYLOAD·🇺🇸 United States

Запущен Aug 22, 2023 с Vandenberg Space Force Base

Loading…

Ближайшие Пролёты (ближайшие 24 часа)

TLE

СвежийSource: CelesTrak SupGP

Эпоха: Sep 15, 2026, 01:30 UTC

1 57663C 23124A   26258.06298611 -.00024723  00000+0 -73057-3 0  2587
2 57663  53.1591  45.2481 0000979  83.1301 109.9728 15.34397278    14

Отслеживайте STARLINK-30267 в реальном времени с AllMySat

Download on the App Store